User: anonymous   Login
Location: Unspecified
(0.0000°N, 0.0000°E)
Time: 06:04:18
(UTC+00:00)
Language:

USA 200 - Orbit

View from above orbital plane
View from above orbital plane
View from above satellite
View from above satellite

Ground track
Ground track

The orbit data is extracted from the following two-line orbital elements,

1 32706U 08010A   17224.64563412 0.00000000  00000-0  00000-0 0    07
2 32706  63.5377 338.5168 7134901 271.2342  15.3858  2.00622000    03
Epoch (UTC): 12 August 2017 15:29:42
Eccentricity: 0.7134901
inclination: 63.5377°
perigee height: 1230 km
apogee height: 39123 km
right ascension of ascending node: 338.5168°
argument of perigee: 271.2342°
revolutions per day: 2.00622000
mean anomaly at epoch: 15.3858°
orbit number at epoch: 0

The dashed part of the orbit path shows where the satellite is in the earth's shadow,  

DLR